User: anonymous   Login
Location: Unspecified
(0.0000°N, 0.0000°E)
Time: 14:28:08
(UTC+00:00)
Language:

OV3-3 - Orbit

View from above orbital plane
View from above orbital plane
View from above satellite
View from above satellite

Ground track
Ground track

The orbit data is extracted from the following two-line orbital elements,

1  2389U 66070A   19050.91864474 +.00001321 +00000-0 +74259-4 0  9997
2  2389 081.3884 033.4622 1238501 249.1320 097.3052 12.92761449248912
Epoch (UTC): 19 February 2019 22:02:50
Eccentricity: 0.1238501
inclination: 81.3884°
perigee height: 341 km
apogee height: 2240 km
right ascension of ascending node: 33.4622°
argument of perigee: 249.1320°
revolutions per day: 12.92761449
mean anomaly at epoch: 97.3052°
orbit number at epoch: 24891

The dashed part of the orbit path shows where the satellite is in the earth's shadow,  

DLR